Regional Weather Roundup
Issued by NWS

Home | Current Version | Previous Version | Text Only | Print | Product List | Glossary Off
Versions: 1 2 3 4 5 6 7 8 9 10 11 12 13 14 15 16 17 18 19 20 21 22 23 24 25 26 27 28 29 30 31 32 33 34 35 36 37 38 39 40 41 42 43 44 45 46 47 48 49 50

000
ASUS45 KSLC 220410
RWRUT

UTAH REGIONAL WEATHER ROUNDUP
NATIONAL WEATHER SERVICE SALT LAKE CITY UT
900 PM MST FRI NOV 21 2014

UTZ001>011-023>025-220500-

NORTHERN UTAH

CITY           SKY/WX    TMP DP  RH WIND       PRES   REMARKS
BRIGHAM CITY   MOCLDY    31  24  75 CALM      30.00F
HILL AFB       PTCLDY    35  23  61 SE6       29.99S WCI  30
LOGAN          CLEAR     33  25  72 S3        29.98S
OGDEN          PTCLDY    36  25  64 SE5       29.99R WCI  32
PROVO AIRPORT  PTCLDY    32  21  64 VRB5      30.03R WCI  27
SALT LAKE CITY PTCLDY    35  28  75 SE5       29.99S WCI  31
VERNAL         CLEAR     26  13  57 NW5       30.04S WCI  20
WENDOVER       MOCLDY    34  19  55 CALM      30.00S
HEBER CITY     CLEAR     27  19  74 CALM      30.02R
WEST JORDAN    CLEAR     36  27  69 CALM      30.00S

$$

UTZ012>022-026-027-220500-

SOUTHERN/CENTRAL UTAH

CITY           SKY/WX    TMP DP  RH WIND       PRES   REMARKS
BLANDING       CLEAR     33  19  58 CALM      30.15R
BRYCE CANYON   CLEAR     23  16  74 W8        30.12R WCI  14
CEDAR CITY     CLEAR     39  25  57 CALM      30.05R
DELTA          CLEAR     35  22  59 CALM      30.02S
MILFORD        CLEAR     32  23  69 SW8       30.03R WCI  25
MOAB/CYNLANDS  CLEAR     29  13  51 CALM      30.06R
PRICE          CLEAR     29  13  51 N8        30.06S WCI  21
ST GEORGE      CLEAR     48  19  32 CALM      30.04R
KANAB          CLEAR     37  19  48 NW12      30.10R WCI  30

$$

REGIONAL REPORTS     COLORADO/ARIZONA

CITY           SKY/WX    TMP DP  RH WIND       PRES   REMARKS
CRAIG, CO      CLEAR     21  16  81 CALM      30.04S
GRAND JUNCTION CLEAR     28  16  60 E5        30.07R WCI  23
RIFLE          CLEAR     31  21  66 CALM      30.08R
MONTROSE       CLEAR     31  21  66 SE10      30.10R WCI  22
CORTEZ         CLEAR     26  19  74 E7        30.10R WCI  18
PAGE, AZ       NOT AVBL
GRAND CANYON   CLEAR     24  11  57 CALM      30.11R
KINGMAN        CLEAR     44  18  35 E9        30.04R
FLAGSTAFF      CLEAR     27  14  58 CALM      30.11R

$$

REGIONAL REPORTS    NEVADA/IDAHO/WYOMING

CITY           SKY/WX    TMP DP  RH WIND       PRES   REMARKS
LAS VEGAS, NV  CLEAR     59  28  30 SW10      29.97R
ELY            MOCLDY    34  18  52 S7        30.06R WCI  28
ELKO           CLOUDY    40  29  64 SW7       30.00R
POCATELLO, ID  PTCLDY    35  26  69 CALM      29.91F
BURLEY         CLOUDY    31  29  92 CALM      29.90S
EVANSTON, WY   PTCLDY    31  19  61 SW10      30.00S WCI  22
ROCK SPRINGS   PTCLDY    30  17  58 W12       29.99R WCI  20
KEMMERER       MOCLDY    30  21  69 W7        30.00S WCI  23

$$



USA.gov is the U.S. government's official web portal to all federal, state and local government web resources and services.